EW3302 Weather Reports


Display with metric or nautical units.
time (UTC)temp
F
wind
direction
speed
MPH
gust
MPH
rain 1hr
in
rain 24hr
in
rain mn
in
humidity
%
barometer
mb
20260504081516 49 180 5.0 10.0 0.00 0.00 0.00 77 1001.7
20260504080516 49 180 4.0 8.0 0.00 0.00 0.00 78 1001.8
20260504050516 43 203 4.0 7.0 0.00 0.00 0.00 84 1003.2
20260504045515 43 180 4.0 7.0 0.00 0.00 0.00 84 1003.3
20260504044535 42 203 3.0 6.0 0.00 0.00 0.00 84 1003.3
20260504043536 42 225 2.0 4.0 0.00 0.00 0.00 85 1003.4
20260504042556 42 203 3.0 6.0 0.00 0.00 0.00 85 1003.6
20260504041516 42 225 2.0 5.0 0.00 0.00 0.00 86 1003.8
20260504040517 42 248 1.0 3.0 0.00 0.01 0.00 87 1004.0
20260504035517 41 248 2.0 5.0 0.00 0.01 0.00 88 1004.0
20260504034517 40 270 2.0 5.0 0.00 0.01 0.00 89 1004.1
20260504033537 40 270 1.0 3.0 0.00 0.01 0.00 89 1004.1
20260504032518 40 248 1.0 3.0 0.00 0.01 0.00 89 1004.1
20260504031518 40 203 1.0 3.0 0.00 0.01 0.00 89 1004.2
20260504030517 40 0.0 2.0 0.00 0.01 0.00 88 1004.3
20260504025517 40 0.0 1.0 0.00 0.01 0.00 88 1004.4
20260504024517 41 180 1.0 2.0 0.00 0.01 0.00 88 1004.4
20260504023517 41 180 1.0 2.0 0.00 0.02 0.00 88 1004.4
20260504022517 41 180 1.0 3.0 0.00 0.02 0.00 87 1004.5
20260504021517 42 203 3.0 5.0 0.00 0.02 0.00 87 1004.6
20260504020517 42 203 2.0 5.0 0.00 0.02 0.00 88 1004.6
20260504015517 43 203 2.0 4.0 0.00 0.02 0.00 88 1004.7
20260504014557 43 158 2.0 3.0 0.00 0.02 0.00 89 1004.9
20260504013517 43 203 1.0 2.0 0.00 0.02 0.00 90 1005.1
20260504012517 43 180 1.0 3.0 0.00 0.02 0.00 90 1005.1
20260504011537 43 180 1.0 2.0 0.00 0.02 0.00 89 1005.2
20260504010537 43 180 2.0 4.0 0.00 0.02 0.00 89 1005.3
20260504005517 43 0.0 1.0 0.00 0.02 0.00 88 1005.3
20260504004517 43 158 1.0 3.0 0.00 0.02 0.00 89 1005.5
20260504003517 43 180 1.0 3.0 0.00 0.02 0.00 89 1005.7
20260504002517 43 180 2.0 4.0 0.00 0.02 0.00 88 1005.7
20260504001517 43 203 1.0 2.0 0.00 0.02 0.00 87 1005.8
20260504000517 43 0.0 2.0 0.00 0.02 0.00 86 1005.8
20260503235517 43 180 1.0 3.0 0.00 0.02 0.00 87 1005.9
20260503234517 43 225 1.0 3.0 0.00 0.02 0.00 87 1006.0
20260503233517 43 248 1.0 2.0 0.00 0.02 0.00 87 1006.1
20260503232517 43 225 2.0 4.0 0.00 0.02 0.00 86 1006.2
20260503231517 44 203 3.0 6.0 0.00 0.02 0.00 86 1006.3
20260503230517 44 203 5.0 8.0 0.00 0.02 0.00 86 1006.3
20260503225517 44 203 3.0 5.0 0.00 0.02 0.00 86 1006.3
20260503224517 44 180 2.0 5.0 0.00 0.02 0.00 86 1006.4
20260503223517 44 180 2.0 5.0 0.00 0.02 0.00 86 1006.4
20260503222517 43 180 3.0 6.0 0.00 0.02 0.00 86 1006.5
20260503221517 43 158 2.0 4.0 0.00 0.02 0.00 86 1006.6
20260503220517 43 158 4.0 7.0 0.00 0.02 0.00 85 1006.7
20260503215516 43 135 2.0 6.0 0.00 0.02 0.02 85 1006.7
20260503214517 43 158 4.0 7.0 0.00 0.02 0.02 85 1006.7
20260503213516 43 158 3.0 6.0 0.00 0.02 0.02 85 1006.8
20260503212517 44 135 4.0 8.0 0.00 0.02 0.02 85 1007.0
20260503211516 44 158 4.0 8.0 0.00 0.03 0.02 84 1007.1
20260503210516 44 135 3.0 5.0 0.00 0.03 0.02 84 1007.2
20260503205516 44 135 4.0 7.0 0.00 0.03 0.02 83 1007.2
20260503204536 44 180 2.0 6.0 0.00 0.03 0.02 83 1007.4
20260503203517 44 135 3.0 6.0 0.00 0.03 0.02 83 1007.4
20260503202516 44 113 2.0 4.0 0.00 0.03 0.02 82 1007.4
20260503201517 44 135 3.0 5.0 0.00 0.03 0.02 82 1007.5
20260503200516 44 135 4.0 7.0 0.00 0.03 0.02 81 1007.4
20260503195536 45 135 3.0 5.0 0.00 0.04 0.02 80 1007.4
20260503194516 45 135 4.0 6.0 0.00 0.04 0.02 80 1007.5
20260503193516 45 135 3.0 5.0 0.00 0.06 0.02 80 1007.5
20260503192516 45 135 3.0 6.0 0.00 0.07 0.02 79 1007.7
20260503191516 45 158 3.0 5.0 0.00 0.09 0.02 79 1007.7
20260503190516 45 158 3.0 7.0 0.00 0.09 0.02 78 1007.9
20260503185517 46 180 3.0 6.0 0.00 0.09 0.02 77 1007.9
20260503184516 46 158 3.0 6.0 0.00 0.09 0.02 77 1007.9
20260503183516 46 158 3.0 6.0 0.00 0.09 0.02 75 1007.9
20260503182516 46 180 4.0 7.0 0.00 0.09 0.02 75 1008.0
20260503181516 46 158 3.0 6.0 0.00 0.09 0.02 75 1007.9
20260503180536 46 158 4.0 7.0 0.00 0.09 0.02 74 1008.0
20260503175536 46 203 4.0 6.0 0.00 0.10 0.02 74 1008.0
20260503174516 46 180 5.0 10.0 0.00 0.10 0.02 73 1008.0
20260503173516 46 158 5.0 8.0 0.00 0.10 0.02 72 1007.9
20260503172516 47 158 4.0 7.0 0.00 0.10 0.02 72 1008.0
20260503171536 47 180 4.0 8.0 0.00 0.10 0.02 71 1008.0
20260503170517 47 180 3.0 7.0 0.00 0.10 0.02 71 1008.1
20260503150516 47 158 1.0 4.0 0.00 0.10 0.02 63 1008.9
20260503130516 47 180 3.0 6.0 0.00 0.10 0.02 63 1009.9
20260503110536 45 338 2.0 5.0 0.00 0.10 0.02 61 1010.9